Location: Goettingen
(51.5300°N, 9.9433°E)
Time: 20:45:05
(UTC+02:00)

ISS - Pass Details

Date: 17 July 2019
Orbit: 409 x 418 km, 51.6° (Epoch: 20 July)

Event Time Altitude Azimuth Distance (km) Brightness Sun altitude
Rises 00:40:46 0° 252° (WSW) 2,347 0.0 -16.5°
Reaches altitude 10° 00:42:52 10° 250° (WSW) 1,484 -1.1 -16.6°
Maximum altitude 00:46:11 73° 166° (SSE) 435 -3.9 -16.7°
Drops below altitude 10° 00:49:30 10° 81° (E) 1,483 -1.0 -16.7°
Sets 00:51:36 0° 80° (E) 2,345 0.1 -16.8°
